370P/NEAT (2018)

Japanese version
Home page
Updated on May 20, 2019

---------------------------------------------------------------------

* Profile

Designation 370P/2018 P2
Recovery Date August 10, 2018
Magnitude 18.8 mag
Recoverer E. Schwab (Egelsbach, Germany), P. Ruiz (European Space Agency's Optical Ground Station, Tenerife, Spain)

* Pictures

* Orbital Elements

Epoch 2018 June 11.0 TT = JDT 2458280.5
T 2018 June  9.51908 TT                                 MPCW
q   2.4853011            (2000.0)            P               Q
n   0.06023082     Peri.  356.78447     +0.61377380     -0.74092459
a   6.4455038      Node    55.16274     +0.73154430     +0.40391484
e   0.6144132      Incl.   19.39798     +0.29685798     +0.53654781
P  16.36
From 173 observations 2001 Sept. 22-2019 Jan. 16, mean residual 0".6.

* Magnitudes Graph

        m1 = 3.5 + 5 log d + 30.0

---------------------------------------------------------------------

The orbital elements are published on M.P.E.C. 2019-J142.
The magnitudes graphs are made with Comet for Windows.

---------------------------------------------------------------------

Copyright(C) Seiichi Yoshida (comet@aerith.net). All rights reserved.